TIME,DELAY(SENSOR),PRES,OXYGEN,RAWTEMP,T(OPTODE),TCPHASE,FLUOR,BETA(BETA700),BETA(BETA412),BETA(BETA440),CDOM,C(CSC),ED(ED412.40),ED(ED444.00),ED(ED489.70),ED(ED554.30),LU(LU411.80),LU(LU443.40),LU(LU489.60),LU(LU554.10),COMP,TILTX,TILTY,CHECK
1355544294,5810,880.4699707031250000,46.2050781250000000,663.7572021484375000,4.5041999816894530,54.1279182434082000,53,100,88,80,81,15188,2147754953,2147421037,2148009280,2147873499,2147638912,2147058102,2148257371,2147196470,1734,4,13,12542
1355547890,5809,953.8300170898438000,50.0900306701660160,673.0748901367188000,4.1965689659118650,53.6977615356445300,53,99,84,79,83,15189,2147755693,2147420571,2148010934,2147874889,2147644068,2147054893,2148261558,2147196233,2658,4,13,2396
1355551490,5804,961.1300048828125000,50.6962394714355500,674.2246704101562000,4.1585388183593750,53.6313591003418000,53,100,91,78,82,15191,2147757056,2147420845,2148010541,2147872512,2147643894,2147059785,2148260105,2147197942,188,4,13,32376
1355555090,5809,991.9299926757812000,52.2067298889160160,677.7661743164062000,4.0413060188293460,53.4705390930175800,52,100,83,80,81,15192,2147755510,2147422464,2148010459,2147873938,2147645650,2147056265,2148262765,2147196425,358,4,13,39811
1355558690,5809,1002.7999877929688000,53.3478202819824200,679.4921875000000000,3.9841189384460450,53.3376808166503900,52,98,85,79,81,15190,2147761837,2147422262,2148009938,2147875940,2147645805,2147059062,2148260288,2147194413,492,4,13,16582
1355562290,5810,998.1400146484375000,52.9999198913574200,679.1815795898438000,3.9944150447845460,53.3779411315918000,52,98,86,78,80,15191,2147760000,2147422381,2148010953,2147871588,2147642413,2147055744,2148262308,2147197750,335,4,13,46053
1355565890,5812,995.8400268554688000,52.7664108276367200,679.0933837890625000,3.9973349571228027,53.4096794128418000,52,100,87,78,81,15189,2147757312,2147421988,2148011611,2147872018,2147642578,2147058157,2148257746,2147199945,2488,4,13,49218
1355569490,5808,995.3599853515625000,53.1268806457519500,679.6668090820312000,3.9783339500427246,53.3723983764648440,53,101,88,80,80,15189,2147755373,2147422948,2148010861,2147874733,2147643785,2147052324,2148261622,2147194651,3545,4,13,48043
1355573090,5811,1004.0599975585938000,53.1893882751464840,680.0753784179688000,3.9647901058197020,53.3642616271972660,53,99,84,79,81,15186,2147757028,2147421330,2148012763,2147872237,2147644544,2147053394,2148265764,2147196525,84,4,13,30270
1355576690,5807,1003.8900146484375000,52.9957313537597660,679.6541137695312000,3.9787559509277344,53.3854103088378900,52,100,85,78,81,15187,2147758875,2147424621,2148011538,2147874240,2147642852,2147055881,2148261942,2147194889,3404,4,13,2369
1355580290,5810,1014.6300048828125000,52.7384605407714840,678.6840209960938000,4.0109000205993650,53.4064216613769500,52,98,86,79,81,15186,2147761965,2147422381,2148008045,2147874889,2147646043,2147055561,2148261165,2147196187,3115,4,13,20973
1355583890,5808,1015.4000244140625000,52.2611999511718750,678.1093750000000000,4.0299401283264160,53.4667510986328100,53,97,88,78,81,15186,2147757430,2147422400,2148010249,2147871817,2147645595,2147055936,2148257920,2147193728,511,4,13,541
1355587490,5809,1018.1400146484375000,51.9195594787597660,677.4564819335938000,4.0515627861022950,53.5032310485839840,53,97,84,79,80,15185,2147756379,2147422336,2148010075,2147870573,2147643675,2147054198,2148267538,2147197074,66,4,13,16830
1355591090,5810,1013.9199829101562000,51.1562500000000000,677.0521240234375000,4.0649590492248535,53.5982818603515600,52,102,87,79,82,15186,2147756470,2147420452,2148010057,2147871396,2147644379,2147055186,2148257984,2147198601,3350,4,13,785
1355594690,5806,1018.7899780273438000,51.3442115783691400,677.6544189453125000,4.0450100898742680,53.5840606689453100,52,98,85,80,81,15178,2147758308,2147424539,2148010313,2147875492,2147640813,2147061174,2148261065,2147196068,3541,4,13,6151
1355598290,5808,1013.4199829101562000,52.1742401123046900,678.6837158203125000,4.0109138488769530,53.4831085205078100,53,98,88,80,81,15181,2147757723,2147423716,2148008393,2147874322,2147641974,2147059593,2148260918,2147197019,232,4,13,25270
1355601890,5810,1021.3099975585938000,52.1777610778808600,678.2003784179688000,4.0269241333007810,53.4812507629394500,52,100,87,78,81,15175,2147757696,2147421869,2148009536,2147871917,2147641426,2147058258,2148264539,2147197129,575,4,13,20989
1355605490,5809,1012.7800292968750000,51.4159202575683600,678.0126953125000000,4.0331420898437500,53.5800590515136700,53,102,85,79,80,15179,2147759341,2147421184,2148010432,2147872192,2147644946,2147055012,2148260982,2147195200,353,4,13,6670
1355609090,5810,1001.5499877929688000,52.5396995544433600,679.4691162109375000,3.9848859310150146,53.4461097717285160,51,99,91,79,81,15182,2147759561,2147423131,2148011529,2147874989,2147644251,2147058989,2148259657,2147195318,619,4,13,62525
1355612690,5811,1001.0200195312500000,52.8449592590332000,681.1506958007812000,3.9291379451751710,53.4269218444824200,52,100,86,79,82,15178,2147758592,2147423433,2148012150,2147874907,2147644534,2147057014,2148259666,2147196964,16,4,13,41300
1355616290,5808,1005.9600219726562000,52.3676300048828100,681.7722778320312000,3.9085218906402590,53.4988784790039060,52,99,87,79,81,15181,2147759003,2147422619,2148012041,2147873371,2147645046,2147054765,2148261357,2147197065,2751,4,13,47578
1355619890,5806,1008.9400024414062000,52.5886192321777340,681.1096801757812000,3.9304978847503660,53.4571685791015600,53,99,87,79,82,15181,2147755282,2147421312,2148012169,2147868845,2147643053,2147057965,2148266121,2147195254,410,4,13,18634
1355623490,5810,1012.2500000000000000,52.1487312316894500,679.3798217773438000,3.9878458976745605,53.4945411682128900,53,97,88,81,82,15183,2147756434,2147422665,2148011840,2147872173,2147641865,2147059044,2148263168,2147198710,138,4,13,6973
1355627090,5810,1016.5399780273438000,52.0061187744140600,679.1204833984375000,3.9964389801025390,53.5119018554687500,53,97,89,80,81,15185,2147759405,2147423552,2148015506,2147872265,2147641472,2147058395,2148264256,2147197129,80,4,13,41992
1355630690,5806,1023.3900146484375000,51.1486015319824200,678.4284057617188000,4.0193710327148440,53.6163406372070300,52,98,83,79,81,15183,2147758326,2147424685,2148011830,2147873334,2147646217,2147055561,2148262171,2147194185,253,4,13,54243
1355634290,5807,1013.7000122070312000,48.5736312866210940,677.1834716796875000,4.0606040954589840,53.9589500427246100,52,98,89,79,82,15180,2147759369,2147422473,2148010194,2147872740,2147644187,2147057334,2148263570,2147197970,3436,4,13,10177
1355637890,5809,1019.9199829101562000,49.8910713195800800,676.5034790039062000,4.0831198692321780,53.7696418762207000,52,100,89,85,83,15185,2147757641,2147425435,2148009947,2147872777,2147643291,2147056512,2148259913,2147195200,85,4,13,25392
1355641490,5809,1018.2199707031250000,48.7057609558105500,676.9318847656250000,4.0689368247985840,53.9355392456054700,53,97,89,80,81,15185,2147757467,2147423314,2148009088,2147872228,2147642596,2147058093,2148259172,2147196973,504,4,13,57074
1355645090,5807,1012.9699707031250000,50.3890914916992200,678.6586303710938000,4.0117440223693850,53.7230491638183600,52,97,89,79,81,15186,2147758866,2147420580,2148009179,2147874377,2147640603,2147056054,2148262710,2147197476,59,5,13,25372
1355648690,5806,1006.1500244140625000,52.4093894958496100,679.7518920898438000,3.9755129814147950,53.4653511047363300,53,97,86,78,81,15182,2147758692,2147423149,2148008475,2147873161,2147643465,2147057536,2148262674,2147198043,3374,4,13,30883
1355652290,5806,1014.1199951171875000,52.0942802429199200,679.8734741210938000,3.9714810848236084,53.5139503479003900,53,100,89,79,82,15183,2147758665,2147422134,2148011876,2147872512,2147645074,2147061129,2148258441,2147195565,347,4,14,46212
1355655890,5810,1003.4699707031250000,52.8958892822265600,680.9639282226562000,3.9353311061859130,53.4178199768066400,52,99,85,79,82,15186,2147759369,2147424640,2148014262,2147870921,2147642020,2147058916,2148263725,2147196818,394,4,13,8682
1355659490,5809,1013.8599853515625000,53.0774993896484400,680.5433959960938000,3.9492740631103516,53.3844604492187500,53,97,85,79,82,15181,2147755931,2147422308,2148010550,2147870619,2147642989,2147051995,2148260397,2147194477,393,4,13,56812
1355663090,5808,1009.2500000000000000,52.9776992797851560,680.9492187500000000,3.9358220100402830,53.4083099365234400,52,99,87,78,81,15178,2147759881,2147421010,2148009682,2147871094,2147646244,2147054619,2148261421,2147196397,3365,4,13,38884
1355666690,5810,1019.5999755859375000,53.3211097717285160,680.8806152343750000,3.9380950927734375,53.3565788269043000,51,97,88,77,81,15180,2147760539,2147420909,2148010112,2147872493,2147646153,2147056374,2148261696,2147196745,3520,4,13,46493
1355670290,5808,1015.4199829101562000,52.7104110717773440,680.8417968750000000,3.9393808841705322,53.4392089843750000,52,97,88,78,81,15179,2147754596,2147422592,2148010240,2147875227,2147648713,2147051620,2148260022,2147194267,3431,4,13,57474
1355673890,5805,1020.0200195312500000,53.4233283996582000,680.8712158203125000,3.9384059906005860,53.3476715087890600,53,100,87,77,82,15180,2147761728,2147423222,2148011748,2147871213,2147642011,2147054308,2148265901,2147195008,197,4,13,60038
1355677490,5809,1014.6199951171875000,52.9756088256835940,681.3007812500000000,3.9241600036621094,53.4142189025878900,52,100,88,78,80,14847,2147759168,2147423689,2148009892,2147872832,2147645613,2147057819,2148263003,2147197897,2388,4,13,31595
1355681090,5809,1027.8499755859375000,52.7144699096679700,679.8129882812500000,3.9734859466552734,53.4286308288574200,52,99,89,80,82,15176,2147753115,2147425197,2148011382,2147874496,2147644425,2147058477,2148264795,2147195218,622,4,13,48261
1355684690,5809,1033.2500000000000000,52.8372802734375000,679.6276245117188000,3.9796330928802490,53.4059104919433600,53,98,88,79,81,15173,2147757805,2147422884,2148009728,2147870427,2147642962,2147056292,2148263734,2147198701,3281,4,13,51142
1355687155,5809,1022.1699829101562000,52.0743408203125000,679.0814819335938000,3.9977319240570070,53.4998703002929700,53,100,86,80,81,15141,2147756900,2147423204,2148006784,2147872475,2147643044,2147051986,2148261366,2147197339,48,4,13,14928
